Hourly Data Report for September 14, 2017

All times are specified in Local Standard Time (LST). Add 1 hour to adjust for Daylight Saving Time where and when it is observed.

BATHURST A
NEW BRUNSWICK

47°37'47.000" N
65°44'20.000" W
58.80 m
8100505
71574
ZBF

Download Data

Hourly Data (September 2017)
Hourly Data Report for September 14, 2017
Temp Definition
°C
Dew Point Temp Definition
°C
Rel Hum Definition
%
Wind Dir Definition
10's deg

Wind Spd Definition
km/h
Visibility Definition
km
Stn Press Definition
kPa
Hmdx Definition


Wind Chill Definition


Weather Definition


TIME
00:00 Legend Double Dagger 20.2 11.5 57 26 21 24.1 99.68     LegendNANA
01:00 Legend Double Dagger 19.9 11.6 58 26 19 24.1 99.70     LegendNANA
02:00 Legend Double Dagger 19.6 11.7 60 25 18 24.1 99.71     Clear
03:00 Legend Double Dagger 18.7 11.8 64 25 16 24.1 99.73     LegendNANA
04:00 Legend Double Dagger 18.6 11.9 65 26 18 24.1 99.76     LegendNANA
05:00 Legend Double Dagger 18.9 12.2 64 27 15 24.1 99.81     Cloudy
06:00 Legend Double Dagger 17.8 12.4 70 26 15 24.1 99.85     LegendNANA
07:00 Legend Double Dagger 17.4 13.0 75 25 13 12.9 99.94     LegendNANA
08:00 Legend Double Dagger 19.5 13.5 68 27 14 12.9 100.00     Cloudy
09:00 Legend Double Dagger 21.1 13.5 62 29 19 16.1 100.04     LegendNANA
10:00 Legend Double Dagger 21.9 13.6 59 30 20 14.5 100.05 25   LegendNANA
11:00 Legend Double Dagger 23.2 14.6 58 31 13 12.9 100.04 27   Cloudy
12:00 Legend Double Dagger 23.7 14.4 55 33 12 12.9 100.04 27   LegendNANA
13:00 Legend Double Dagger 24.6 14.0 51 32 9 12.9 100.04 28   LegendNANA
14:00 Legend Double Dagger 25.6 13.8 48 26 23 12.9 100.03 29   Cloudy
15:00 Legend Double Dagger 23.6 13.9 54 0 1 12.9 100.05 27   LegendNANA
16:00 Legend Double Dagger 24.8 15.1 54 29 5 12.9 100.07 29   LegendNANA
17:00 Legend Double Dagger 23.3 14.3 56 32 7 19.3 100.14 27   Cloudy
18:00 Legend Double Dagger 20.8 10.0 50 33 7 19.3 100.24     LegendNANA
19:00 Legend Double Dagger 18.5 9.3 55 33 4 24.1 100.35     LegendNANA
20:00 Legend Double Dagger 14.9 9.4 70 29 4 24.1 100.43     Cloudy
21:00 Legend Double Dagger 13.1 9.9 81 36 1 24.1 100.53     LegendNANA
22:00 Legend Double Dagger 10.7 9.2 91 21 3 24.1 100.60     LegendNANA
23:00 Legend Double Dagger 10.3 8.4 88 27 3 24.1 100.69     Cloudy

Notes on Data Quality.

Legend

  • E = Estimated
  • M = Missing
  • NA = Not Available
  • ‡ = Partner data that is not subject to review by the National Climate Archives
Date modified: